Location: Asheville, NC
(35.6000°N, 82.5500°W)
Time: 15:15:34
(UTC-04:00)

SEEDS - Pass Details

Date: 17 March 2018
Orbit: 587 x 605 km, 97.5° (Epoch: 25 June)

Event Time Altitude Azimuth Distance (km) Brightness Sun altitude
Rises 20:58:13 0° 206° (SSW) 2,803 ? -16.7°
Reaches altitude 10° 21:01:07 10° 229° (SW) 1,911 ? -17.3°
Maximum altitude 21:03:38 16° 267° (W) 1,582 ? -17.8°
Drops below altitude 10° 21:06:11 10° 304° (NW) 1,927 ? -18.3°
Sets 21:09:08 0° 327° (NNW) 2,838 ? -18.9°
